Portada
METAR-TAF:

METAR-TAF

Aeroports :

Mudgee, Austràlia

latitud: 32-33-45S, longitud: 149-36-40E, altitud: 471 m

Observació

L'informe es va fer fa 55 minuts, a les 16:00 UTC
Vent 5 kt del Sud/Sud-Est
Temperatura 14°C
Humitat 94%
Pressió 1026 hPa
Visibilitat 10 km o més

METAR: YMDG 191600Z AUTO 15005KT 9999 // NCD 14/13 Q1026

Hora: 02:55 (16:55 UTC)


TAF: manca

Observacions i pronòstics meteorològics de més de 4000 aeroports (METAR i TAF).

Les estacions disponibles són els punts grocs i vermells al mapa.

Posi el ratolí al punt desitjat per veure el nom de l'estació.

Feu clic per veure les observacions i els pronòstics meteorològics.

Per canviar el mapa: feu clic els botons verds amb una creu de color negre per apropar; al botó verd amb un guió per allunyar la imatge; o en les fletxes verdes per a mapes adjacents.


METAR-TAF: